This is the latest recevied weather packets stored in our database for station/object N6RDS. If no packets are shown the sender has not sent any weather packets the latest 1 day(s).
| Time | Temp. | Humidity | Pressure | Rain* | Wind** | Luminosity | Snow |
|---|---|---|---|---|---|---|---|
| 1778064993 | -2.22° C | 96% | 1022.8 hPa | 0 mm | - | 0 W/m² | - |
| 1778063783 | -1.67° C | 96% | 1022.6 hPa | 0 mm | - | 0 W/m² | - |
| 1778063178 | -1.67° C | 96% | 1022.6 hPa | 0 mm | - | 0 W/m² | - |
| 1778062875 | -1.67° C | 96% | 1022.6 hPa | 0 mm | - | 0 W/m² | - |
| 1778061967 | -2.22° C | 96% | 1022.2 hPa | 0 mm | - | 0 W/m² | - |
| 1778061363 | -1.67° C | 96% | 1022.3 hPa | 0 mm | - | 0 W/m² | - |
| 1778060757 | -1.67° C | 96% | 1022.4 hPa | 0 mm | - | 0 W/m² | - |
| 1778059244 | -2.22° C | 96% | 1022.3 hPa | 0 mm | - | 0 W/m² | - |
| 1778058337 | -2.22° C | 96% | 1022.1 hPa | 0 mm | - | 0 W/m² | - |
| 1778057124 | -1.67° C | 96% | 1022.1 hPa | 0 mm | - | 0 W/m² | - |
| 1778056820 | -1.67° C | 96% | 1022.2 hPa | 0 mm | - | 0 W/m² | - |
| 1778055607 | -1.67° C | 95% | 1022.3 hPa | 0 mm | - | 0 W/m² | - |
| 1778054396 | -1.11° C | 95% | 1022.2 hPa | 0 mm | - | 0 W/m² | - |
| 1778053791 | -0.56° C | 95% | 1022.3 hPa | 0 mm | - | 0 W/m² | - |
| 1778053488 | -0.56° C | 95% | 1022.4 hPa | 0 mm | - | 0 W/m² | - |
| 1778053185 | -0.56° C | 95% | 1022.4 hPa | 0 mm | - | 0 W/m² | - |
| 1778052883 | -0.56° C | 95% | 1022.3 hPa | 0 mm | - | 0 W/m² | - |
| 1778052580 | -0.56° C | 96% | 1022.2 hPa | 0 mm | - | 0 W/m² | - |
| 1778051975 | 0° C | 95% | 1022.4 hPa | 0 mm | - | 0 W/m² | - |
| 1778051673 | 0° C | 95% | 1022.3 hPa | 0 mm | - | 0 W/m² | - |
| 1778050764 | 0° C | 95% | 1022.2 hPa | 0 mm | - | 0 W/m² | - |
| 1778050461 | 0° C | 95% | 1022.2 hPa | 0 mm | - | 0 W/m² | - |
| 1778048340 | 0.56° C | 94% | 1022 hPa | 0 mm | - | 0 W/m² | - |
| 1778047735 | 0.56° C | 94% | 1021.7 hPa | 0 mm | - | 0 W/m² | - |
| 1778047129 | 1.11° C | 94% | 1021.7 hPa | 0 mm | - | 0 W/m² | - |
* Rain latest hour (hover to see other rain measurements)
** Current wind speed in m/s (hover to see current wind gust speed)